User: anonymous   Login
Location: �clusier
(49.9361°N, 2.7869°E)
Time: 19:44:19
(UTC+00:00)
Language:

Cosmos 2034 Rocket - Orbit

View from above orbital plane
View from above orbital plane
View from above satellite
View from above satellite

Ground track
Ground track

The orbit data is extracted from the following two-line orbital elements,

1 20150U 89059B   21267.74853350  .00000072  00000-0  58847-4 0  9997
2 20150  82.9448  16.3947 0027814 243.4291 226.4890 13.75660370614732
Epoch (UTC): 24 September 2021 17:57:53
Eccentricity: 0.0027814
inclination: 82.9448°
perigee height: 959 km
apogee height: 1000 km
right ascension of ascending node: 16.3947°
argument of perigee: 243.4291°
revolutions per day: 13.75660370
mean anomaly at epoch: 226.4890°
orbit number at epoch: 61473

The dashed part of the orbit path shows where the satellite is in the earth's shadow,  

DLR